Wind_Speed
44 44 45 46 47 47 49 49 50 49 49 48 48 48 48 48 48 49 49 50 51 52 52 52 52 51 51 51 52 52 52 52 53 53 53 53 53 54
44 45 45 46 46 47 47 47 47 48 48 48 47 47 47 47 47 47 48 49 49 49 50 51 51 51 51 51 51 51 51 51 52 53 53 53 54 54
44 45 45 45 45 45 45 45 45 46 47 47 46 46 47 46 46 47 47 48 48 48 49 50 50 50 50 50 50 51 51 51 52 52 52 53 53 54
44 44 44 44 45 44 44 45 45 46 47 46 46 46 46 46 46 46 47 47 47 48 48 48 49 49 49 49 49 49 50 50 51 51 52 52 52 53
44 44 44 44 44 44 44 44 45 45 45 45 45 45 45 45 45 46 46 47 47 47 47 46 47 48 47 47 47 48 48 49 49 49 50 50 51 51
43 44 45 45 45 45 44 44 44 44 44 44 44 44 44 45 45 45 45 46 46 46 45 45 45 46 47 47 46 47 48 48 47 48 48 48 48 47
43 44 45 45 44 44 43 42 42 42 42 42 43 43 43 43 44 44 45 45 45 44 44 44 45 45 45 46 46 46 46 46 46 46 45 45 44 43
41 42 42 42 42 42 41 41 40 40 40 41 41 42 42 43 43 43 44 44 43 44 44 43 43 43 43 43 44 44 44 44 43 42 41 40 39 39
40 40 40 40 40 39 39 39 40 40 40 40 40 40 41 42 43 43 43 43 42 43 43 42 42 41 41 40 41 40 39 39 39 38 37 36 36 36
38 38 38 37 37 37 37 37 37 39 39 39 38 38 38 39 40 41 41 41 40 41 41 40 39 39 38 38 39 38 36 37 37 36 35 34 34 34
36 35 36 36 35 36 35 36 36 36 37 37 37 36 36 37 38 40 40 39 39 38 38 37 36 36 36 36 36 36 35 35 34 34 33 33 33 33
35 35 35 35 34 34 34 34 34 34 35 35 36 36 36 37 37 38 38 37 36 35 35 36 35 35 34 34 34 33 33 32 31 31 31 32 32 32
34 34 34 35 34 34 34 34 34 34 34 34 35 35 35 36 36 36 36 36 35 34 34 34 34 33 33 32 32 31 30 30 29 29 30 30 29 29
33 33 33 34 34 34 34 34 34 34 34 33 33 33 33 33 33 33 34 34 33 32 32 32 32 32 31 30 29 28 28 29 29 29 29 28 28 27
32 32 32 33 33 33 33 32 33 33 32 32 32 32 32 32 32 31 30 30 30 30 30 30 30 29 28 28 28 27 27 27 28 28 27 25 24 24
30 30 30 31 31 31 31 31 31 31 31 30 30 30 30 29 30 29 29 29 28 27 27 27 26 26 26 26 26 26 26 25 25 25 24 23 22 21
29 30 29 29 30 29 29 30 30 29 29 29 29 29 29 29 28 28 27 27 26 25 25 25 24 24 23 23 24 24 25 24 23 22 22 21 21 21
28 28 28 28 28 28 28 28 28 28 27 27 27 27 27 27 26 26 26 25 24 24 23 23 23 23 22 22 22 22 22 22 21 20 20 19 19 20
27 27 27 27 27 27 27 26 26 26 26 26 26 26 25 25 25 25 24 24 23 23 22 22 22 22 21 21 21 21 21 21 19 19 19 19 18 18
26 26 25 25 25 25 25 24 24 25 25 25 24 24 23 23 23 22 22 21 21 20 21 21 21 21 20 19 19 19 19 18 17 16 16 16 16 16
24 24 24 23 23 23 23 23 23 22 22 22 21 21 21 21 21 21 20 20 19 19 20 20 19 19 18 18 17 16 16 16 15 15 14 14 14 14
22 22 22 22 22 22 21 21 20 19 19 19 20 19 19 19 19 19 19 18 18 18 18 18 18 17 17 16 15 14 13 13 13 13 13 13 13 12
20 20 20 20 20 19 19 18 18 17 17 17 17 17 17 17 17 17 17 17 16 16 16 16 16 15 15 14 13 12 12 12 12 12 11 12 11 11
Wind_Direction
275 276 277 278 278 277 275 275 276 276 275 275 276 276 276 276 276 275 275 275 275 275 276 276 276 276 276 277 277 277 278 278 278 277 277 277 278 279
276 278 278 278 278 277 277 277 277 277 275 275 275 275 275 276 276 276 276 276 276 276 277 277 277 277 277 277 278 278 277 278 278 278 278 278 278 279
278 278 279 280 279 279 277 277 278 278 276 276 275 275 275 276 276 276 276 277 276 277 278 278 277 277 277 278 278 278 278 279 279 279 279 279 279 280
278 277 278 280 280 279 279 278 278 278 276 276 275 275 275 276 276 277 276 277 277 277 278 277 277 278 278 278 279 279 279 279 279 280 280 279 280 281
277 277 279 280 280 279 280 279 278 277 276 275 275 275 276 276 276 277 276 277 277 277 277 277 277 277 278 279 280 280 280 280 281 281 280 280 281 282
277 278 279 280 281 280 279 278 278 277 276 276 276 276 276 275 275 277 276 276 276 276 276 276 277 278 279 279 281 281 281 281 282 282 282 282 281 282
279 280 280 280 281 279 279 278 278 278 277 277 277 277 276 275 276 276 277 277 277 276 276 276 277 279 280 281 281 281 282 282 282 282 282 282 282 282
280 280 281 281 280 279 278 277 278 279 279 279 279 278 276 276 276 277 278 277 277 276 276 276 276 278 279 281 282 283 283 283 283 283 283 283 282 281
280 279 280 280 280 280 280 279 278 278 279 280 281 281 278 277 277 277 278 278 277 277 276 276 277 277 279 280 282 284 285 285 284 285 284 284 283 282
281 281 281 280 280 280 280 280 279 279 279 279 280 281 279 277 277 278 278 279 278 278 277 277 277 278 280 281 281 283 285 285 285 285 285 285 284 284
280 280 280 280 281 281 280 280 280 280 279 280 280 280 279 278 278 278 279 280 279 278 278 278 278 279 280 280 281 282 283 285 287 286 285 284 285 284
280 279 280 281 281 280 281 281 281 281 281 281 280 279 280 280 279 278 280 280 279 278 278 278 278 279 279 280 281 283 284 285 286 286 286 285 285 285
279 280 280 281 281 281 282 282 282 281 282 282 281 280 280 280 279 279 280 280 279 278 278 278 279 279 280 281 281 283 283 283 284 286 288 288 287 286
280 281 281 281 282 282 283 283 282 282 282 282 282 281 280 281 280 279 280 280 280 279 278 278 280 281 281 281 281 282 282 283 285 287 289 289 287 286
283 284 283 283 284 284 284 284 283 283 283 283 282 281 280 281 280 279 279 280 280 280 280 281 282 281 280 280 280 281 282 283 285 286 286 286 287 286
285 286 286 286 286 286 286 285 284 284 283 283 283 282 281 280 280 280 279 280 281 281 282 282 283 282 282 281 281 281 282 284 284 285 284 284 283 281
285 286 286 286 287 288 288 286 285 285 284 283 283 282 281 281 281 280 279 281 281 281 281 282 282 282 283 282 282 283 284 285 284 283 283 283 282 283
284 286 287 287 287 288 287 286 285 284 284 284 283 282 282 282 282 281 280 280 281 280 280 281 282 283 283 284 284 285 286 287 285 282 281 281 283 284
285 286 287 287 288 289 288 286 285 284 284 285 285 284 283 283 282 281 280 279 279 278 278 279 281 283 283 284 287 288 289 289 286 282 281 281 282 283
288 288 288 288 288 289 289 287 286 285 285 285 285 284 284 284 283 281 279 278 278 277 277 278 280 281 282 284 287 289 290 289 285 282 282 281 281 281
289 290 290 289 289 290 291 290 289 288 285 285 285 285 284 283 283 281 279 277 277 278 278 278 280 279 279 283 286 288 290 289 285 283 283 284 281 278
290 291 291 291 291 293 293 293 291 289 288 286 285 284 284 284 284 282 278 276 278 279 278 277 278 278 279 282 284 286 288 287 284 286 286 286 286 283
293 293 294 294 294 294 294 294 293 292 292 290 288 287 286 285 285 283 279 275 277 278 276 276 277 277 278 279 282 285 288 287 284 286 288 289 289 288
Height
5654 5653 5651 5650 5648 5647 5646 5646 5646 5646 5647 5647 5645 5643 5641 5641 5640 5640 5639 5639 5638 5638 5637 5636 5635 5635 5634 5633 5633 5632 5631 5630 5629 5628 5628 5627 5626 5625
5642 5641 5639 5637 5636 5634 5633 5633 5632 5632 5633 5634 5632 5631 5629 5628 5627 5627 5626 5625 5625 5624 5623 5623 5622 5621 5620 5619 5618 5617 5616 5615 5614 5614 5613 5612 5611 5610
5630 5629 5627 5625 5623 5622 5621 5621 5620 5619 5619 5620 5619 5618 5617 5615 5615 5614 5613 5612 5612 5611 5610 5609 5608 5607 5606 5605 5604 5603 5602 5601 5600 5599 5598 5597 5596 5595
5619 5618 5616 5614 5612 5611 5610 5609 5608 5607 5606 5606 5606 5605 5604 5603 5602 5601 5600 5599 5599 5598 5597 5596 5595 5594 5593 5592 5591 5590 5588 5587 5586 5585 5584 5583 5581 5579
5608 5606 5605 5603 5601 5599 5598 5597 5596 5594 5593 5593 5593 5592 5591 5590 5589 5588 5588 5587 5586 5585 5584 5583 5582 5581 5580 5579 5577 5576 5575 5574 5573 5571 5569 5568 5566 5565
5596 5595 5594 5592 5590 5588 5587 5585 5584 5582 5581 5580 5580 5580 5579 5578 5577 5576 5575 5574 5574 5573 5572 5571 5570 5569 5568 5566 5565 5564 5562 5561 5559 5557 5556 5554 5552 5551
5585 5584 5582 5580 5578 5577 5575 5574 5572 5571 5570 5569 5568 5568 5567 5565 5565 5564 5563 5562 5562 5561 5560 5559 5558 5557 5555 5554 5552 5551 5550 5548 5546 5545 5543 5541 5540 5538
5574 5573 5571 5569 5567 5565 5564 5562 5561 5560 5559 5558 5557 5556 5555 5554 5553 5552 5551 5551 5551 5550 5548 5548 5546 5545 5544 5542 5540 5539 5537 5536 5534 5533 5531 5529 5528 5526
5564 5562 5560 5558 5556 5554 5553 5552 5551 5549 5548 5547 5546 5545 5543 5543 5541 5541 5540 5539 5539 5538 5536 5536 5535 5534 5533 5531 5529 5528 5526 5524 5523 5522 5521 5519 5517 5516
5553 5551 5549 5547 5546 5544 5543 5541 5540 5538 5537 5536 5535 5534 5532 5531 5530 5529 5528 5528 5528 5526 5525 5525 5524 5523 5522 5520 5519 5517 5516 5515 5513 5512 5510 5509 5508 5506
5542 5541 5539 5538 5536 5534 5533 5532 5530 5529 5527 5525 5525 5524 5522 5521 5520 5519 5518 5517 5517 5516 5515 5514 5514 5513 5513 5511 5509 5507 5506 5505 5504 5502 5501 5499 5498 5497
5533 5531 5530 5528 5526 5524 5523 5522 5521 5519 5518 5516 5515 5514 5512 5511 5510 5509 5508 5507 5506 5506 5505 5504 5504 5503 5503 5502 5500 5498 5497 5496 5494 5493 5491 5490 5488 5487
5523 5522 5520 5518 5517 5515 5514 5513 5511 5510 5508 5507 5506 5504 5503 5502 5501 5500 5498 5497 5497 5497 5496 5495 5494 5493 5493 5493 5492 5490 5488 5487 5486 5484 5483 5481 5479 5478
5514 5513 5511 5509 5508 5506 5504 5503 5501 5500 5499 5498 5497 5495 5494 5493 5492 5490 5489 5488 5488 5487 5486 5486 5485 5485 5484 5483 5483 5482 5480 5479 5477 5476 5475 5473 5471 5470
5505 5503 5502 5500 5498 5497 5495 5494 5492 5491 5490 5489 5488 5486 5485 5484 5482 5482 5481 5480 5479 5478 5478 5477 5477 5476 5475 5475 5475 5473 5472 5471 5469 5468 5467 5465 5464 5463
5496 5494 5493 5491 5490 5488 5487 5485 5483 5482 5481 5480 5479 5477 5476 5475 5474 5474 5473 5472 5472 5471 5470 5469 5469 5468 5468 5467 5466 5465 5464 5463 5462 5461 5459 5458 5457 5456
5488 5486 5485 5483 5482 5480 5478 5477 5475 5474 5472 5471 5470 5469 5468 5467 5466 5466 5465 5465 5464 5464 5463 5462 5462 5461 5461 5460 5459 5458 5457 5456 5455 5454 5453 5452 5451 5450
5480 5478 5477 5475 5474 5472 5470 5468 5467 5466 5464 5463 5462 5461 5460 5459 5459 5458 5458 5457 5457 5457 5456 5456 5455 5455 5454 5454 5453 5452 5451 5449 5448 5447 5446 5446 5446 5445
5472 5470 5469 5467 5466 5464 5462 5461 5459 5458 5457 5456 5455 5454 5453 5452 5451 5451 5451 5450 5450 5450 5449 5449 5449 5448 5448 5448 5447 5446 5445 5443 5442 5442 5441 5441 5441 5440
5464 5462 5461 5459 5458 5457 5455 5453 5452 5451 5450 5449 5448 5447 5446 5445 5444 5444 5444 5443 5443 5443 5443 5442 5442 5442 5442 5442 5441 5440 5438 5438 5437 5437 5436 5436 5436 5435
5457 5455 5454 5452 5451 5450 5448 5447 5445 5444 5443 5442 5441 5440 5439 5439 5438 5437 5437 5437 5437 5437 5437 5437 5436 5436 5436 5435 5435 5435 5434 5432 5432 5432 5432 5432 5432 5431
5450 5449 5448 5446 5445 5443 5442 5440 5439 5438 5437 5436 5435 5434 5433 5433 5432 5432 5431 5431 5431 5431 5431 5431 5430 5430 5430 5430 5430 5430 5430 5429 5428 5427 5427 5427 5427 5427
5445 5443 5442 5440 5439 5438 5436 5435 5434 5433 5432 5431 5430 5429 5428 5427 5427 5426 5426 5426 5426 5426 5426 5426 5426 5426 5426 5426 5426 5426 5425 5425 5425 5424 5424 5423 5423 5422